| time (UTC) | temp F | wind direction | speed MPH | gust MPH | rain 1hr in | rain 24hr in | rain mn in | humidity % | barometer mb |
| 20260902210017 | 77 | 0.0 | 1.0 | 0.00 | 0.04 | 0.04 | 93 | 1016.3 | |
| 20260902205017 | 76 | 90 | 1.0 | 3.0 | 0.00 | 0.04 | 0.04 | 93 | 1015.9 |
| 20260902204018 | 76 | 90 | 1.0 | 3.0 | 0.00 | 0.04 | 0.04 | 93 | 1016.0 |
| 20260902203017 | 76 | 0.0 | 1.0 | 0.00 | 0.04 | 0.04 | 93 | 1016.7 | |
| 20260902202016 | 76 | 0.0 | 0.0 | 0.00 | 0.04 | 0.04 | 93 | 1016.8 | |
| 20260902201016 | 76 | 0.0 | 0.0 | 0.01 | 0.04 | 0.04 | 92 | 1017.0 | |
| 20260902200017 | 76 | 0.0 | 1.0 | 0.02 | 0.04 | 0.04 | 92 | 1017.0 | |
| 20260902195017 | 77 | 0.0 | 0.0 | 0.04 | 0.04 | 0.04 | 91 | 1016.7 | |
| 20260902194017 | 77 | 0.0 | 0.0 | 0.04 | 0.04 | 0.04 | 91 | 1016.7 | |
| 20260902193038 | 77 | 0.0 | 2.0 | 0.04 | 0.04 | 0.04 | 90 | 1016.9 | |
| 20260902192038 | 78 | 135 | 1.0 | 2.0 | 0.04 | 0.04 | 0.04 | 87 | 1016.7 |
| 20260902191057 | 80 | 90 | 3.0 | 7.0 | 0.03 | 0.03 | 0.03 | 81 | 1016.5 |
| 20260902190018 | 84 | 45 | 1.0 | 7.0 | 0.02 | 0.02 | 0.02 | 77 | 1017.9 |
| 20260902185017 | 87 | 45 | 2.0 | 9.0 | 0.00 | 0.00 | 0.00 | 76 | 1017.4 |
| 20260902184017 | 87 | 68 | 3.0 | 7.0 | 0.00 | 0.00 | 0.00 | 78 | 1017.3 |
| 20260902183057 | 87 | 90 | 3.0 | 7.0 | 0.00 | 0.00 | 0.00 | 77 | 1017.3 |
| 20260902182038 | 88 | 113 | 3.0 | 5.0 | 0.00 | 0.00 | 0.00 | 78 | 1017.1 |
| 20260902181018 | 88 | 90 | 3.0 | 6.0 | 0.00 | 0.00 | 0.00 | 77 | 1017.2 |
| 20260902180018 | 87 | 90 | 3.0 | 7.0 | 0.00 | 0.00 | 0.00 | 78 | 1017.0 |
| 20260902175017 | 87 | 90 | 3.0 | 7.0 | 0.00 | 0.00 | 0.00 | 78 | 1017.0 |
| 20260902174018 | 87 | 135 | 3.0 | 6.0 | 0.00 | 0.00 | 0.00 | 79 | 1016.9 |
| 20260902173017 | 87 | 90 | 3.0 | 6.0 | 0.00 | 0.00 | 0.00 | 79 | 1016.8 |
| 20260902172017 | 87 | 90 | 3.0 | 11.0 | 0.00 | 0.00 | 0.00 | 79 | 1017.0 |
| 20260902171017 | 87 | 113 | 1.0 | 4.0 | 0.00 | 0.00 | 0.00 | 79 | 1017.0 |
| 20260902170038 | 87 | 158 | 2.0 | 6.0 | 0.00 | 0.00 | 0.00 | 79 | 1016.6 |
| 20260902165120 | 86 | 113 | 3.0 | 5.0 | 0.00 | 0.00 | 0.00 | 79 | 1016.6 |
| 20260902164017 | 86 | 158 | 3.0 | 7.0 | 0.00 | 0.00 | 0.00 | 80 | 1016.5 |
| 20260902163018 | 86 | 113 | 4.0 | 7.0 | 0.00 | 0.00 | 0.00 | 79 | 1016.5 |
| 20260902162037 | 86 | 90 | 4.0 | 8.0 | 0.00 | 0.00 | 0.00 | 78 | 1016.5 |
| 20260902161017 | 87 | 90 | 4.0 | 10.0 | 0.00 | 0.00 | 0.00 | 79 | 1016.6 |
| 20260902160017 | 87 | 90 | 3.0 | 6.0 | 0.00 | 0.00 | 0.00 | 78 | 1016.6 |
| 20260902155037 | 88 | 90 | 2.0 | 5.0 | 0.00 | 0.00 | 0.00 | 77 | 1016.6 |
| 20260902154017 | 88 | 180 | 2.0 | 5.0 | 0.00 | 0.00 | 0.00 | 78 | 1016.7 |
| 20260902153017 | 88 | 113 | 2.0 | 5.0 | 0.00 | 0.00 | 0.00 | 77 | 1016.6 |
| 20260902152017 | 87 | 158 | 2.0 | 5.0 | 0.00 | 0.00 | 0.00 | 80 | 1016.6 |
| 20260902151017 | 86 | 68 | 2.0 | 6.0 | 0.00 | 0.00 | 0.00 | 80 | 1016.7 |
| 20260902150017 | 86 | 90 | 4.0 | 7.0 | 0.00 | 0.00 | 0.00 | 79 | 1016.7 |
| 20260902145039 | 87 | 68 | 1.0 | 4.0 | 0.00 | 0.00 | 0.00 | 79 | 1016.8 |
| 20260902144017 | 87 | 45 | 2.0 | 6.0 | 0.00 | 0.00 | 0.00 | 80 | 1016.7 |
| 20260902143017 | 86 | 90 | 3.0 | 7.0 | 0.00 | 0.00 | 0.00 | 80 | 1016.5 |
| 20260902142018 | 87 | 68 | 1.0 | 4.0 | 0.00 | 0.00 | 0.00 | 81 | 1016.5 |
| 20260902141017 | 86 | 45 | 3.0 | 7.0 | 0.00 | 0.00 | 0.00 | 81 | 1016.5 |
| 20260902140016 | 85 | 90 | 2.0 | 6.0 | 0.00 | 0.00 | 0.00 | 81 | 1016.4 |
| 20260902135016 | 85 | 45 | 2.0 | 5.0 | 0.00 | 0.00 | 0.00 | 82 | 1016.4 |
| 20260902134017 | 84 | 45 | 2.0 | 6.0 | 0.00 | 0.00 | 0.00 | 84 | 1016.3 |
| 20260902133017 | 83 | 68 | 2.0 | 7.0 | 0.00 | 0.00 | 0.00 | 87 | 1016.3 |
| 20260902132017 | 81 | 0.0 | 4.0 | 0.00 | 0.00 | 0.00 | 91 | 1016.2 | |
| 20260902131017 | 79 | 68 | 1.0 | 4.0 | 0.00 | 0.00 | 0.00 | 93 | 1016.0 |
| 20260902130038 | 79 | 68 | 2.0 | 9.0 | 0.00 | 0.00 | 0.00 | 92 | 1015.9 |
| 20260902125018 | 78 | 68 | 2.0 | 6.0 | 0.00 | 0.00 | 0.00 | 94 | 1015.9 |
| 20260902124016 | 77 | 68 | 1.0 | 4.0 | 0.00 | 0.00 | 0.00 | 95 | 1015.9 |
| 20260902123018 | 77 | 0.0 | 3.0 | 0.00 | 0.00 | 0.00 | 95 | 1016.0 | |
| 20260902122038 | 76 | 68 | 1.0 | 4.0 | 0.00 | 0.00 | 0.00 | 95 | 1016.0 |
| 20260902121017 | 76 | 68 | 1.0 | 2.0 | 0.00 | 0.00 | 0.00 | 95 | 1015.9 |
| 20260902120018 | 76 | 0.0 | 2.0 | 0.00 | 0.00 | 0.00 | 96 | 1016.0 | |
| 20260902115016 | 76 | 0.0 | 0.0 | 0.00 | 0.00 | 0.00 | 96 | 1015.9 | |
| 20260902114022 | 76 | 0.0 | 0.0 | 0.00 | 0.00 | 0.00 | 96 | 1015.9 | |
| 20260902113017 | 75 | 0.0 | 0.0 | 0.00 | 0.00 | 0.00 | 95 | 1016.0 | |
| 20260902112016 | 75 | 0.0 | 0.0 | 0.00 | 0.00 | 0.00 | 96 | 1016.0 | |
| 20260902111017 | 75 | 0.0 | 0.0 | 0.00 | 0.00 | 0.00 | 96 | 1015.9 | |
| 20260902110038 | 75 | 0.0 | 1.0 | 0.00 | 0.00 | 0.00 | 95 | 1015.9 | |
| 20260902105038 | 75 | 0.0 | 0.0 | 0.00 | 0.00 | 0.00 | 95 | 1015.6 | |
| 20260902104017 | 75 | 0.0 | 0.0 | 0.00 | 0.00 | 0.00 | 95 | 1015.8 | |
| 20260902103037 | 75 | 0.0 | 1.0 | 0.00 | 0.00 | 0.00 | 95 | 1015.5 | |
| 20260902102017 | 74 | 0.0 | 0.0 | 0.00 | 0.00 | 0.00 | 95 | 1015.4 | |
| 20260902101016 | 74 | 0.0 | 1.0 | 0.00 | 0.00 | 0.00 | 95 | 1015.3 | |
| 20260902100018 | 74 | 0.0 | 1.0 | 0.00 | 0.00 | 0.00 | 95 | 1015.2 | |
| 20260902095057 | 74 | 0.0 | 1.0 | 0.00 | 0.00 | 0.00 | 95 | 1015.2 | |
| 20260902094016 | 74 | 0.0 | 0.0 | 0.00 | 0.00 | 0.00 | 95 | 1015.1 | |
| 20260902093016 | 74 | 0.0 | 2.0 | 0.00 | 0.00 | 0.00 | 95 | 1015.0 | |
| 20260902092037 | 74 | 0.0 | 2.0 | 0.00 | 0.00 | 0.00 | 95 | 1014.9 | |
| 20260902091018 | 74 | 0.0 | 1.0 | 0.00 | 0.00 | 0.00 | 95 | 1015.1 | |
| 20260902090018 | 74 | 0.0 | 1.0 | 0.00 | 0.00 | 0.00 | 95 | 1015.2 | |
| 20260902085018 | 74 | 0.0 | 0.0 | 0.00 | 0.00 | 0.00 | 95 | 1015.2 | |
| 20260902084017 | 74 | 0.0 | 0.0 | 0.00 | 0.00 | 0.00 | 95 | 1015.2 | |
| 20260902083017 | 74 | 0.0 | 0.0 | 0.00 | 0.00 | 0.00 | 95 | 1015.1 | |
| 20260902082016 | 74 | 0.0 | 1.0 | 0.00 | 0.00 | 0.00 | 95 | 1015.1 | |
| 20260902081018 | 74 | 0.0 | 2.0 | 0.00 | 0.00 | 0.00 | 96 | 1015.2 | |
| 20260902080018 | 74 | 0.0 | 1.0 | 0.00 | 0.00 | 0.00 | 95 | 1014.9 | |
| 20260902075018 | 74 | 0.0 | 0.0 | 0.00 | 0.00 | 0.00 | 95 | 1014.7 | |
| 20260902074017 | 74 | 0.0 | 0.0 | 0.00 | 0.00 | 0.00 | 95 | 1014.5 | |
| 20260902073017 | 74 | 0.0 | 0.0 | 0.00 | 0.00 | 0.00 | 95 | 1014.6 | |
| 20260902072018 | 74 | 0.0 | 0.0 | 0.00 | 0.00 | 0.00 | 95 | 1014.6 | |
| 20260902071017 | 74 | 0.0 | 0.0 | 0.00 | 0.00 | 0.00 | 94 | 1014.7 | |
| 20260902070037 | 74 | 0.0 | 0.0 | 0.00 | 0.00 | 0.00 | 95 | 1014.7 | |
| 20260902065016 | 74 | 0.0 | 0.0 | 0.00 | 0.00 | 0.00 | 94 | 1014.7 | |
| 20260902064016 | 74 | 0.0 | 0.0 | 0.00 | 0.00 | 0.00 | 94 | 1014.6 | |
| 20260902063018 | 75 | 0.0 | 0.0 | 0.00 | 0.00 | 0.00 | 94 | 1014.9 | |
| 20260902062058 | 75 | 0.0 | 0.0 | 0.00 | 0.00 | 0.00 | 94 | 1014.8 | |
| 20260902061017 | 75 | 0.0 | 0.0 | 0.00 | 0.00 | 0.00 | 94 | 1014.7 | |
| 20260902060018 | 75 | 0.0 | 0.0 | 0.00 | 0.00 | 0.00 | 94 | 1014.7 | |
| 20260902055017 | 75 | 0.0 | 0.0 | 0.00 | 0.00 | 0.00 | 94 | 1014.5 | |
| 20260902054016 | 75 | 0.0 | 0.0 | 0.00 | 0.00 | 0.00 | 93 | 1014.7 | |
| 20260902053017 | 75 | 0.0 | 0.0 | 0.00 | 0.00 | 0.00 | 93 | 1014.8 | |
| 20260902052017 | 76 | 0.0 | 0.0 | 0.00 | 0.00 | 0.00 | 94 | 1014.7 | |
| 20260902051016 | 76 | 0.0 | 0.0 | 0.00 | 0.00 | 0.00 | 93 | 1014.7 | |
| 20260902050018 | 76 | 0.0 | 0.0 | 0.00 | 0.00 | 0.00 | 93 | 1014.6 | |
| 20260902045057 | 76 | 0.0 | 0.0 | 0.00 | 0.00 | 0.00 | 93 | 1014.6 | |
| 20260902044018 | 77 | 0.0 | 0.0 | 0.00 | 0.00 | 0.00 | 93 | 1014.7 | |
| 20260902043016 | 77 | 0.0 | 0.0 | 0.00 | 0.00 | 0.00 | 93 | 1014.7 | |
| 20260902042036 | 77 | 0.0 | 0.0 | 0.00 | 0.00 | 0.00 | 93 | 1014.7 | |
| 20260902041042 | 77 | 0.0 | 0.0 | 0.00 | 0.00 | 0.00 | 93 | 1014.6 | |
| 20260902040018 | 77 | 0.0 | 0.0 | 0.00 | 0.00 | 0.00 | 92 | 1014.4 | |
| 20260902035017 | 77 | 0.0 | 0.0 | 0.00 | 0.00 | 0.00 | 93 | 1014.3 | |
| 20260902034059 | 77 | 0.0 | 0.0 | 0.00 | 0.00 | 0.00 | 92 | 1014.1 | |
| 20260902033017 | 77 | 0.0 | 1.0 | 0.00 | 0.00 | 0.00 | 92 | 1013.9 | |
| 20260902032019 | 77 | 0.0 | 0.0 | 0.00 | 0.00 | 0.00 | 92 | 1013.8 | |
| 20260902031038 | 77 | 0.0 | 0.0 | 0.00 | 0.00 | 0.00 | 92 | 1013.6 | |
| 20260902030017 | 77 | 0.0 | 0.0 | 0.00 | 0.00 | 0.00 | 92 | 1013.7 | |
| 20260902025017 | 78 | 0.0 | 1.0 | 0.00 | 0.00 | 0.00 | 92 | 1013.8 | |
| 20260902024017 | 78 | 0.0 | 0.0 | 0.00 | 0.00 | 0.00 | 91 | 1013.9 | |
| 20260902023017 | 78 | 0.0 | 0.0 | 0.00 | 0.00 | 0.00 | 91 | 1013.9 | |
| 20260902022018 | 78 | 0.0 | 0.0 | 0.00 | 0.00 | 0.00 | 91 | 1013.9 | |
| 20260902021017 | 78 | 0.0 | 0.0 | 0.00 | 0.00 | 0.00 | 91 | 1013.7 | |
| 20260902020018 | 78 | 0.0 | 0.0 | 0.00 | 0.00 | 0.00 | 90 | 1013.7 | |
| 20260902015038 | 79 | 0.0 | 0.0 | 0.00 | 0.00 | 0.00 | 89 | 1013.5 | |
| 20260902014038 | 79 | 0.0 | 0.0 | 0.00 | 0.00 | 0.00 | 89 | 1013.4 | |
| 20260902013018 | 79 | 0.0 | 0.0 | 0.00 | 0.00 | 0.00 | 89 | 1013.4 | |
| 20260902012019 | 79 | 0.0 | 0.0 | 0.00 | 0.00 | 0.00 | 88 | 1013.4 | |
| 20260902011120 | 80 | 0.0 | 0.0 | 0.00 | 0.00 | 0.00 | 88 | 1013.4 | |
| 20260902010017 | 80 | 0.0 | 1.0 | 0.00 | 0.00 | 0.00 | 87 | 1013.2 | |
| 20260902005024 | 81 | 0.0 | 0.0 | 0.00 | 0.00 | 0.00 | 86 | 1012.7 | |
| 20260902004017 | 81 | 0.0 | 0.0 | 0.00 | 0.00 | 0.00 | 86 | 1012.4 | |
| 20260902003037 | 82 | 0.0 | 0.0 | 0.00 | 0.00 | 0.00 | 86 | 1012.4 | |
| 20260902002017 | 82 | 0.0 | 0.0 | 0.00 | 0.00 | 0.00 | 85 | 1012.5 | |
| 20260902001037 | 83 | 0.0 | 0.0 | 0.00 | 0.00 | 0.00 | 84 | 1012.4 | |
| 20260902000017 | 83 | 0.0 | 0.0 | 0.00 | 0.00 | 0.00 | 83 | 1012.5 | |
| 20260901235017 | 84 | 0.0 | 1.0 | 0.00 | 0.00 | 0.00 | 82 | 1012.3 | |
| 20260901234017 | 85 | 0.0 | 1.0 | 0.00 | 0.00 | 0.00 | 81 | 1012.5 | |
| 20260901233017 | 86 | 0.0 | 0.0 | 0.00 | 0.00 | 0.00 | 79 | 1012.5 | |
| 20260901232017 | 87 | 0.0 | 0.0 | 0.00 | 0.00 | 0.00 | 78 | 1012.6 | |
| 20260901231017 | 88 | 0.0 | 0.0 | 0.00 | 0.00 | 0.00 | 77 | 1012.4 | |
| 20260901230037 | 89 | 0.0 | 0.0 | 0.00 | 0.00 | 0.00 | 74 | 1012.5 | |
| 20260901225017 | 90 | 0.0 | 0.0 | 0.00 | 0.00 | 0.00 | 74 | 1012.6 | |
| 20260901224017 | 91 | 0.0 | 1.0 | 0.00 | 0.00 | 0.00 | 72 | 1012.9 | |
| 20260901223038 | 92 | 0.0 | 0.0 | 0.00 | 0.00 | 0.00 | 72 | 1013.0 | |
| 20260901222017 | 92 | 0.0 | 0.0 | 0.00 | 0.00 | 0.00 | 69 | 1012.9 | |
| 20260901221017 | 93 | 0.0 | 2.0 | 0.00 | 0.00 | 0.00 | 66 | 1012.9 | |
| 20260901220018 | 93 | 270 | 1.0 | 3.0 | 0.00 | 0.00 | 0.00 | 65 | 1012.9 |
| 20260901215018 | 93 | 0.0 | 2.0 | 0.00 | 0.00 | 0.00 | 67 | 1013.0 | |
| 20260901214038 | 93 | 270 | 2.0 | 6.0 | 0.00 | 0.00 | 0.00 | 62 | 1013.3 |
| 20260901213017 | 93 | 248 | 2.0 | 4.0 | 0.00 | 0.00 | 0.00 | 61 | 1013.3 |
| 20260901212015 | 94 | 248 | 3.0 | 5.0 | 0.00 | 0.00 | 0.00 | 61 | 1013.2 |
| 20260901211037 | 95 | 158 | 2.0 | 5.0 | 0.00 | 0.00 | 0.00 | 61 | 1013.2 |